Temp
25 24 22 22 21 20 20 20 20 20 20 20 19 19 19 21 21 21 22 22 21 21 21 21 20 20 20 19 19 18 17 15 15 14 13 12 13 12 12 12 12 11 11
24 22 22 22 22 21 20 20 20 20 20 20 20 20 20 20 21 22 22 21 21 22 22 21 21 21 20 19 18 18 15 15 15 14 13 10 11 12 12 11 12 11 11
23 21 22 22 22 21 20 21 20 20 21 21 21 22 22 21 20 21 22 21 22 21 21 21 21 20 20 19 18 18 17 14 15 15 14 9 9 10 11 11 11 11 10
24 23 22 22 22 22 21 21 21 21 20 21 21 21 21 20 20 20 21 21 21 21 21 21 20 20 20 20 19 18 18 16 15 15 15 16 13 9 8 10 11 11 11
24 24 23 23 22 22 21 20 20 20 20 20 21 20 20 21 21 20 20 21 21 21 20 20 20 20 20 20 19 18 18 17 16 15 15 14 13 13 9 7 9 10 10
24 24 25 23 22 22 22 21 20 20 20 20 20 20 20 20 19 19 19 20 20 20 20 20 20 20 19 19 19 18 18 17 17 17 16 16 14 12 11 6 7 9 10
24 24 24 23 21 22 21 20 20 19 19 20 20 20 20 20 20 19 19 19 20 19 19 19 19 19 19 19 18 18 17 17 17 17 16 16 16 16 14 12 8 8 9
24 23 23 20 21 21 21 20 19 19 19 19 19 20 20 19 19 19 18 19 19 19 19 18 19 18 18 18 18 17 17 16 16 16 16 16 16 16 15 14 11 6 7
24 23 21 19 20 20 20 20 19 19 18 19 19 20 20 20 19 19 19 20 20 19 18 18 18 18 17 17 17 17 16 16 16 16 16 16 16 15 15 15 15 11 6
21 20 20 18 19 19 19 19 19 18 18 19 19 19 20 20 19 19 18 19 19 19 18 18 17 17 17 16 16 16 16 16 15 15 15 15 15 14 15 15 15 14 12
14 14 14 15 17 18 18 18 18 18 18 18 19 19 19 20 20 20 20 20 19 19 18 17 17 16 16 15 15 15 15 14 14 14 14 14 14 14 14 14 14 14 13
13 14 14 14 14 16 17 17 17 17 18 17 18 17 19 19 20 19 19 19 19 18 17 17 16 15 15 15 14 14 13 14 14 13 13 13 13 13 13 13 14 13 13
13 13 13 14 13 14 15 15 17 18 17 17 16 16 15 16 16 18 19 18 17 16 16 16 15 15 14 13 13 13 13 13 13 13 13 13 12 12 12 12 12 12 12
13 13 13 13 13 13 12 12 14 17 17 15 15 15 14 14 13 12 13 13 13 14 14 15 14 14 13 12 11 12 12 12 12 12 12 12 12 12 12 11 12 12 12
12 12 12 13 13 12 12 12 12 13 14 15 14 15 14 13 15 13 13 11 12 12 14 12 11 11 11 11 10 10 11 11 11 11 11 11 11 12 11 11 11 11 12
11 12 12 12 13 13 12 11 11 11 11 11 11 12 13 14 13 13 13 13 12 12 13 13 13 10 10 10 10 11 11 11 11 11 11 11 11 10 10 10 10 11 11
10 11 11 11 12 11 11 11 10 10 10 10 10 11 11 11 11 11 11 11 10 11 10 10 9 9 9 9 10 11 10 11 11 10 10 10 10 10 10 10 9 9 9
9 10 10 10 10 11 11 11 10 10 10 9 9 9 10 10 10 10 10 10 10 10 10 9 8 8 8 9 10 10 10 10 10 10 10 10 9 9 9 9 9 9 9
8 9 10 10 10 10 10 10 10 11 10 10 9 9 8 8 9 9 8 8 8 8 8 8 8 8 8 8 9 9 10 9 9 9 9 9 9 9 8 8 8 8 8
9 10 11 11 10 11 11 10 10 10 10 10 9 9 8 8 8 8 8 8 8 8 7 7 7 7 8 8 8 8 9 9 8 8 8 8 8 8 8 8 8 7 7
9 10 11 10 10 11 11 10 10 10 10 10 9 9 8 7 7 7 7 7 7 7 7 7 7 7 7 8 8 8 8 8 8 8 8 8 7 8 8 7 7 7 7
7 8 8 9 10 10 11 10 10 10 10 10 9 9 8 7 7 6 6 6 6 7 7 7 7 7 7 7 7 7 7 8 8 8 8 8 8 7 7 7 7 6 6
6 7 7 8 10 10 10 10 10 10 10 10 9 8 8 8 7 7 6 6 6 6 6 6 6 6 6 6 6 7 7 7 8 8 8 8 8 7 7 7 6 5 5
7 8 9 8 8 9 9 9 9 10 10 10 9 9 8 7 8 7 6 6 6 6 6 6 6 6 6 6 7 7 7 7 6 7 7 7 7 7 7 6 5 5 5
8 8 9 9 10 10 9 9 9 9 9 9 9 9 8 8 7 7 7 6 6 6 6 6 6 6 6 6 7 7 7 7 7 6 6 6 6 6 6 5 5 5 4
8 8 8 8 9 9 9 9 9 9 9 9 9 9 9 8 7 7 7 6 6 6 6 7 7 6 6 6 6 6 6 5 5 5 5 5 5 5 5 5 4 4 4
Height
700 705 713 721 730 738 745 750 753 757 763 768 772 779 785 789 793 798 802 805 808 810 814 818 823 826 829 833 838 840 844 850 852 856 863 867 868 869 869 871 871 872 873
697 704 708 715 723 729 738 745 747 752 757 763 770 777 782 787 792 796 801 806 808 810 812 815 819 823 826 830 834 836 842 847 850 854 860 868 871 870 870 870 871 872 872
688 699 704 708 715 722 729 735 742 747 755 760 767 775 781 787 789 792 797 801 805 809 812 815 817 820 822 825 829 833 836 844 848 849 852 865 866 866 868 869 871 871 872
679 683 693 701 705 712 721 729 739 745 752 758 762 765 771 778 783 787 792 797 801 806 811 814 816 818 820 822 825 829 831 835 841 846 847 848 851 862 869 868 868 869 871
671 680 684 688 693 704 713 720 730 739 746 754 760 764 767 772 779 784 788 793 798 801 806 810 813 816 818 820 823 826 828 830 835 838 842 846 849 851 855 864 863 866 867
662 668 673 685 690 700 709 717 723 730 739 748 756 762 766 769 773 778 783 789 794 797 801 805 809 813 815 818 820 822 825 827 830 833 836 838 842 847 848 856 860 862 866
656 663 670 680 690 698 707 715 723 730 735 743 749 756 762 765 767 769 773 780 786 792 797 801 806 809 812 815 818 819 821 824 826 828 831 835 836 839 843 847 853 858 864
645 653 663 672 680 688 697 706 713 724 731 739 745 750 759 764 767 771 772 775 781 787 794 798 802 806 809 812 814 816 818 821 823 826 827 830 832 834 836 841 844 856 859
636 646 656 664 673 685 692 700 712 720 727 735 740 745 752 760 763 767 770 775 779 784 789 794 798 802 806 808 811 813 816 820 822 822 825 827 830 832 834 837 838 841 855
641 648 656 663 672 681 687 698 704 705 713 727 736 740 745 752 759 764 767 768 773 780 785 790 794 797 802 805 806 813 814 817 821 822 825 826 829 831 832 835 837 838 841
662 661 665 667 672 678 685 697 704 712 716 723 728 734 738 745 753 759 764 767 770 773 778 782 789 791 796 802 805 807 810 814 818 819 823 825 827 830 831 833 835 837 839
670 669 673 672 676 684 688 694 702 708 713 719 724 736 733 742 747 752 759 763 764 767 773 779 785 789 792 797 801 804 808 811 814 816 821 823 826 827 829 831 833 835 837
680 679 679 680 683 686 690 698 701 705 710 717 721 729 734 736 743 748 751 756 760 764 768 773 781 785 790 795 800 802 806 809 812 815 819 821 825 826 828 831 834 835 837
689 686 686 687 688 692 696 700 700 703 707 716 720 724 723 730 746 754 757 754 759 763 767 771 777 782 787 792 795 798 803 806 809 809 814 818 819 822 825 826 830 832 834
701 699 699 697 695 695 699 699 705 705 707 711 712 715 724 731 729 745 749 753 752 759 762 766 772 778 781 788 792 799 805 806 806 808 811 816 817 820 824 826 827 829 830
712 710 709 708 707 708 708 707 711 712 714 715 719 723 724 731 732 733 746 751 754 763 762 764 764 772 780 786 791 798 803 804 806 808 810 813 817 819 822 824 827 830 830
722 720 719 719 717 713 713 715 718 720 720 720 724 729 731 733 735 742 750 752 754 764 760 760 765 772 781 780 791 797 802 804 806 807 809 814 817 819 821 823 826 828 829
730 731 729 727 726 725 724 726 728 729 726 728 730 732 733 736 742 747 749 751 753 756 755 762 766 773 777 780 787 794 797 801 804 807 808 813 816 817 820 821 825 826 828
736 736 736 736 733 732 731 730 730 733 734 734 735 736 738 741 745 746 747 750 752 755 761 765 766 769 776 783 787 791 792 796 801 805 809 811 814 817 818 820 821 823 826
742 741 740 740 740 740 738 735 735 737 741 741 740 740 740 742 743 745 748 750 753 756 762 764 766 770 776 780 783 786 791 794 799 803 806 809 813 814 817 818 818 820 823
749 747 744 744 744 745 743 744 744 746 745 744 744 744 744 745 748 751 753 754 756 759 761 763 766 770 775 777 782 784 788 792 795 800 802 807 809 811 813 815 815 818 822
756 754 752 750 749 749 749 750 752 753 752 749 748 749 751 751 751 752 753 755 758 759 762 764 767 770 772 775 779 783 787 792 794 796 798 802 806 807 809 811 812 815 820
763 758 757 756 755 755 754 754 753 753 754 755 756 756 757 757 756 757 757 757 758 761 765 768 770 771 774 777 780 783 786 789 792 792 796 800 802 804 806 807 809 812 816
761 759 760 760 760 759 758 758 757 757 756 755 757 757 760 762 763 762 761 761 761 761 762 765 768 771 774 777 780 782 784 787 788 789 794 796 798 800 801 803 806 808 813
759 758 758 758 758 760 759 760 761 761 759 758 759 762 764 765 765 764 764 765 765 766 767 769 771 774 776 779 780 781 782 783 784 787 789 791 792 794 796 797 801 803 807
758 758 758 758 757 758 760 760 760 761 761 760 759 759 760 761 762 762 762 764 765 766 768 769 771 773 774 776 778 779 780 781 781 782 784 785 788 790 792 793 795 798 801
Wind_Speed
22 33 41 42 40 41 42 42 44 46 46 43 39 39 35 39 37 35 33 29 24 28 30 38 36 37 35 32 28 28 30 29 30 27 20 16 13 12 11 11 8 8 8
19 17 37 41 43 42 44 41 45 46 43 38 37 35 35 39 38 36 33 31 27 27 33 36 36 32 31 32 32 34 31 33 33 16 15 3 4 8 12 11 10 8 8
22 19 25 38 42 43 45 46 45 47 41 38 42 39 32 35 31 37 37 32 30 26 30 32 30 30 32 34 34 37 35 28 25 33 9 3 4 6 10 13 12 11 11
22 24 27 31 41 44 44 46 43 43 38 39 40 39 33 24 23 33 37 35 33 29 30 28 30 29 31 32 35 37 35 36 28 30 9 7 14 3 2 10 13 13 13
24 23 26 38 46 46 45 47 45 43 42 43 37 34 31 29 30 33 36 39 35 33 31 30 28 29 29 32 35 38 36 36 35 30 20 10 13 10 4 3 8 11 16
25 26 32 36 38 41 42 41 43 42 42 45 40 35 31 29 33 36 38 41 37 34 32 32 30 31 32 33 34 34 34 34 33 33 26 21 12 10 6 3 4 12 14
23 24 24 20 27 35 37 36 38 38 40 45 44 41 34 35 39 41 40 40 40 36 33 33 32 32 32 31 30 30 31 32 32 32 30 25 25 15 18 9 5 5 6
23 25 22 19 31 38 40 38 41 37 38 40 37 42 33 32 36 36 34 41 41 38 35 33 33 32 30 30 29 30 31 30 29 28 29 29 25 23 20 16 15 3 3
23 24 21 19 32 34 37 39 36 35 37 37 41 44 40 35 39 39 42 43 40 39 37 36 34 32 30 30 30 29 27 28 28 28 27 22 23 19 18 17 23 15 4
7 10 14 16 25 32 34 33 36 41 46 44 38 40 43 39 40 42 42 43 42 40 38 37 35 32 30 28 27 25 25 27 26 23 19 17 19 18 18 15 19 19 13
9 9 6 12 19 27 29 29 32 29 30 38 44 40 41 40 40 43 42 41 41 42 41 39 37 34 32 28 27 26 25 23 22 18 20 18 16 16 15 15 18 22 14
10 9 7 7 14 15 23 28 30 29 25 21 25 25 38 38 41 42 42 43 43 42 41 38 37 33 32 28 28 25 23 22 22 21 19 17 18 17 14 14 15 22 18
12 11 10 6 7 11 11 15 26 25 20 14 9 23 23 32 32 40 43 43 43 42 41 38 36 32 29 26 24 20 21 22 20 18 18 18 15 13 12 11 12 15 17
14 13 11 9 10 14 13 13 11 15 14 14 15 19 14 15 14 5 17 33 35 40 39 38 34 30 29 28 25 24 23 21 20 18 16 16 16 15 14 14 14 14 16
16 16 14 9 9 13 14 16 13 7 11 17 13 24 23 16 12 21 20 19 28 32 34 30 28 30 31 30 24 22 23 22 19 16 15 15 16 15 15 15 14 15 18
16 17 17 15 8 11 13 16 12 15 15 21 18 18 23 22 28 27 32 26 33 36 37 28 30 34 29 27 22 24 24 20 17 18 18 17 16 16 14 13 12 14 19
14 16 15 14 17 13 17 17 16 16 19 19 19 18 22 24 25 30 31 29 29 35 30 25 26 29 29 22 23 23 21 19 19 19 18 18 17 15 15 13 12 14 15
12 12 13 19 21 22 18 19 18 19 20 17 15 13 13 14 14 18 22 25 26 24 22 24 27 25 24 24 25 23 21 18 17 19 19 19 18 17 16 16 15 14 14
6 11 18 18 22 24 23 27 26 16 12 13 13 11 12 14 14 13 14 15 16 17 21 23 22 22 23 23 22 21 20 18 19 20 20 18 17 17 18 17 18 15 14
12 15 19 23 22 22 23 27 25 28 15 9 12 12 11 12 11 10 10 11 12 15 17 17 19 20 22 22 20 20 20 19 19 20 20 18 17 16 17 18 18 18 18
19 12 16 19 16 19 22 23 25 25 21 9 9 12 13 12 11 12 10 9 11 12 13 14 15 16 19 18 20 19 23 22 20 22 22 21 19 17 16 18 21 21 18
18 20 18 17 17 13 15 15 15 17 22 21 10 9 11 13 12 10 9 8 7 8 9 10 11 14 15 15 17 20 23 23 23 24 22 20 19 19 17 18 18 19 17
13 13 15 18 20 20 14 14 11 11 14 18 17 8 9 10 11 11 10 8 6 5 5 7 9 10 12 13 15 17 22 21 20 19 20 19 19 19 18 18 17 17 19
11 8 8 4 11 15 18 21 21 13 9 12 14 13 9 8 6 6 6 6 6 4 2 1 4 7 9 10 13 16 18 22 21 17 18 18 20 20 22 21 21 20 22
6 4 7 6 3 1 9 12 17 18 16 9 9 8 8 7 6 4 3 4 4 2 2 2 3 6 9 12 14 16 19 21 23 21 14 17 20 22 25 25 25 24 25
1 5 8 6 2 1 2 5 8 11 13 10 9 8 6 6 3 3 3 3 3 3 2 1 3 3 6 8 9 11 12 15 19 19 24 25 21 25 29 29 27 27 28
Wind_Direction
184 174 176 174 171 175 178 180 180 186 188 187 186 190 186 191 191 191 191 197 204 186 182 172 168 171 169 171 172 158 153 146 147 133 131 144 157 165 165 165 171 165 160
181 170 175 176 177 175 181 183 182 188 185 183 184 182 186 193 192 187 193 195 192 183 178 172 174 175 172 172 169 165 156 156 157 146 125 137 144 171 174 172 171 172 179
181 171 176 178 179 180 182 185 186 186 186 181 178 182 183 184 187 193 194 188 192 189 189 183 180 177 174 174 177 175 169 164 169 165 149 129 197 146 179 185 188 183 176
191 172 179 180 182 184 183 183 186 185 185 185 182 180 187 183 189 187 188 183 186 189 185 184 186 187 188 186 186 184 187 177 179 185 179 157 148 167 163 199 197 190 192
190 186 179 181 185 183 183 184 184 185 184 188 191 187 186 189 192 186 189 188 187 193 190 192 195 197 191 191 189 190 193 194 191 188 190 178 176 161 140 181 184 191 195
192 192 190 179 184 183 183 183 183 183 183 185 190 194 193 188 179 183 184 187 188 194 196 194 196 198 190 189 192 196 200 202 203 203 205 199 171 184 156 133 166 189 199
191 194 191 176 175 178 181 181 183 182 183 188 190 195 199 194 188 184 179 182 187 191 191 190 194 201 202 202 201 201 204 204 207 208 212 212 206 200 200 160 136 144 186
191 192 187 167 171 176 179 180 180 181 184 188 192 195 202 198 192 188 184 186 188 193 195 197 202 206 207 208 207 208 208 206 206 211 216 220 217 218 209 183 154 115 140
186 186 178 164 170 174 176 177 178 181 184 188 194 197 198 205 199 193 194 195 198 198 199 204 206 207 210 211 211 208 206 211 213 213 213 218 218 213 211 206 196 156 155
156 155 164 146 160 173 175 178 180 179 183 190 196 197 201 204 203 199 197 197 200 200 201 204 208 207 210 210 204 209 211 214 218 217 211 207 205 195 196 202 202 200 168
51 63 82 133 143 156 157 168 175 179 180 191 199 200 203 205 206 205 205 205 203 202 201 203 206 205 205 206 210 213 213 213 215 212 213 208 199 194 197 209 204 209 193
47 60 46 106 120 135 151 158 166 175 179 188 200 216 199 199 201 204 208 208 206 201 202 203 204 204 202 204 210 212 211 214 211 209 206 211 215 213 215 218 216 205 198
45 52 54 80 90 103 129 148 167 176 181 175 159 208 194 188 192 203 206 208 208 199 199 201 202 199 203 205 210 209 214 213 211 208 214 220 217 211 211 205 202 195 201
42 38 36 47 69 94 105 120 155 197 200 209 160 173 139 138 63 324 218 201 199 197 196 197 197 202 204 205 209 207 212 208 210 212 215 216 211 212 215 203 195 199 199
47 36 33 34 40 72 80 89 106 158 227 215 202 198 190 199 265 298 239 197 190 198 192 198 197 205 204 210 206 210 209 206 202 204 205 211 212 216 217 207 194 197 191
47 42 33 30 31 80 78 81 78 93 119 125 150 186 191 201 178 189 223 205 204 210 198 206 207 209 205 204 201 206 207 204 200 197 203 206 206 203 208 209 219 225 196
50 43 35 35 34 51 78 73 76 87 90 98 110 141 162 170 171 185 199 197 196 202 197 198 199 202 202 189 199 205 207 200 206 205 202 202 202 208 209 206 208 206 209
61 49 40 31 41 62 77 98 97 93 85 84 96 114 135 144 158 169 179 186 192 200 199 204 204 201 197 189 196 199 200 205 214 212 216 216 205 200 209 210 205 208 210
57 68 58 46 52 55 57 64 59 65 85 91 93 107 134 145 157 162 167 181 184 184 189 196 195 198 196 195 197 201 200 203 210 214 214 216 215 209 206 213 213 206 212
62 65 61 60 68 68 63 56 51 51 54 111 94 88 111 136 137 147 164 176 186 191 198 196 201 199 200 200 201 207 206 205 208 210 214 217 223 217 217 222 220 213 216
33 52 71 57 64 69 67 59 56 55 55 105 105 86 82 102 126 136 146 164 182 191 194 199 201 206 207 205 209 211 211 210 206 215 215 218 218 223 231 238 234 236 233
3 12 27 41 48 67 69 63 62 60 63 66 106 100 85 82 93 111 113 126 149 171 189 203 209 216 215 210 205 206 214 216 216 218 223 227 228 228 231 240 241 238 238
315 339 358 13 40 43 45 52 39 48 58 67 74 122 105 83 71 79 97 102 105 128 164 189 200 210 217 213 212 213 212 221 228 233 236 240 237 233 234 239 239 236 232
192 190 273 297 11 37 40 38 35 31 50 57 73 86 116 110 74 69 74 83 98 102 85 269 257 253 244 234 229 222 223 229 227 231 229 232 236 235 235 230 229 234 238
17 6 239 229 181 344 25 28 29 27 32 45 52 67 110 106 121 127 99 77 70 65 56 6 268 266 263 253 250 246 238 232 231 223 218 225 230 230 229 228 230 231 234
345 351 356 335 355 203 263 307 334 8 9 7 12 16 9 358 7 35 53 72 79 52 2 357 320 316 291 292 282 276 274 260 248 235 232 235 234 229 230 232 232 233 236